www.pogodaiklimat.ru

Погода и климат >> Архив погоды >> Австралия >> Западная Австралия >> Эсперанс


ПОГОДА в Эсперансе

  • Прогноз погоды в Эсперансе
  • Монитор погоды в Эсперансе

АРХИВ ПОГОДЫ в Эсперансе

Время (UTC), дата Ветер
(напр.,м/с)
 
Видим.   Явления Облачность Т
(С)
Тd
(С)
f
(%)
Тe
(С)
Тes
(С)
Комфортность P
(гПа)
Po
(гПа)
Тmin
(С)
Tmax
(С)
R
(мм)
R24
(мм)
S
(см)
01 14.09 З 2 н/о 10/0
[]
+21.3 +14.7 66 +24 +28 комфорт 1021.9 1018.6 +15.9
03 14.09 ЮЗ 5 н/о н/о +21.5 +13.9 62 +24 +24 комфорт 1022.0 1018.7
04 14.09 Ю 4 н/о 6/0
[]
+22.7 +14.8 61 +26 +34 жарко 1021.4 1018.1
06 14.09 Ю 6 н/о н/о +19.6 +15.3 76 +21 +21 комфорт 1020.9 1017.6
07 14.09 Ю 5 н/о 10/10 200 м
[]
+18.4 +15.8 85 +19 +19 1021.3 1018.0
09 14.09 ЮВ 3 н/о н/о +17.5 +15.7 89 +18 +18 1021.4 1018.1
10 14.09 Ю 3 н/о 6/0
[]
+17.0 +15.5 91 +17 +17 1021.8 1018.5
12 14.09 В 2 н/о н/о +16.3 +15.5 95 +16 +16 1023.7 1020.4
13 14.09 В 1 н/о 9/9 1500 м
[]
+16.2 +14.9 92 +17 +17 1023.3 1020.0 +24.4
15 14.09 Ю 3 н/о н/о +15.9 +15.4 97 +16 +16 1021.7 1018.4
16 14.09 Ю 3 н/о 10/10 200 м
[]
+16.7 +15.6 93 +16 +16 1022.1 1018.8
18 14.09 ЮВ 6 н/о н/о +14.8 +14.3 97 +13 +13 1022.7 1019.4
19 14.09 ЮВ 6 н/о {туман} н/о +14.8 +12.5 86 +13 +13 1022.7 1019.4
21 14.09 В 3 н/о н/о +15.1 +12.2 83 +15 +15 1023.4 1020.1
22 14.09 Ю 5 н/о н/о +15.3 +11.1 76 +14 +14 1024.0 1020.7
00 15.09 Ю 5 н/о н/о +15.6 +10.4 71 +15 +15 1025.3 1022.0
01 15.09 ЮВ 5 н/о н/о +15.6 +9.3 66 +14 +14 1025.6 1022.3 +14.7
03 15.09 ЮВ 6 н/о н/о +16.9 +7.8 55 +16 +16 1025.2 1021.9
04 15.09 ЮВ 6 н/о н/о +16.8 +7.2 53 +16 +16 1025.0 1021.7
06 15.09 ЮВ 6 н/о н/о +16.3 +6.4 52 +15 +15 1025.0 1021.7
07 15.09 ЮВ 5 н/о н/о +16.1 +6.5 53 +15 +15 1025.3 1022.0
09 15.09 ЮВ 5 н/о н/о +15.2 +7.0 58 +14 +14 1025.9 1022.6
10 15.09 ЮВ 5 н/о н/о +14.9 +7.9 63 +14 +14 1026.7 1023.4
12 15.09 ЮВ 5 н/о н/о +14.7 +7.0 60 +13 +13 1027.7 1024.4
13 15.09 ЮВ 5 н/о н/о +14.5 +8.0 65 +13 +13 1027.6 1024.3 +17.5
15 15.09 ЮВ 4 н/о н/о +14.1 +7.2 63 +13 +13 1027.6 1024.3
16 15.09 В 5 н/о н/о +14.2 +6.3 59 +13 +13 1027.8 1024.5
18 15.09 В 2 н/о н/о +11.6 +6.9 73 +11 +11 1027.0 1023.7
19 15.09 СВ 2 н/о н/о +10.8 +7.3 79 +9 +9 1026.9 1023.6
21 15.09 0 н/о 1027.4 1024.1
22 15.09 0 н/о 1027.9 1024.6
00 16.09 СВ 5 н/о н/о +13.1 +7.8 70 +11 +11 1028.4 1025.1
01 16.09 СВ 6 н/о 1/1 600 м
[]
+15.4 +8.2 62 +14 +17 1028.1 1024.8
03 16.09 СВ 5 н/о н/о +17.4 +6.6 49 +17 +17 1026.6 1023.3
04 16.09 СВ 5 н/о 5/5 1000 м
[]
+18.3 +5.8 44 +18 +23 1025.4 1022.1
06 16.09 В 4 н/о н/о +20.5 +4.9 36 +21 +21 комфорт 1023.2 1019.9
07 16.09 ЮВ 8 н/о н/о +18.1 +9.7 58 +17 +17 1022.4 1019.1
09 16.09 ЮВ 7 н/о н/о +16.2 +9.8 66 +15 +15 1021.9 1018.6
10 16.09 В 8 н/о н/о +15.2 +9.3 68 +13 +13 1022.0 1018.7
12 16.09 В 4 н/о н/о +13.8 +7.3 65 +12 +12 1023.0 1019.7
13 16.09 В 5 н/о 9/0
[]
+12.9 +7.4 69 +11 +11 1023.1 1019.8
15 16.09 В 3 н/о н/о +11.4 +7.7 78 +10 +10 1022.2 1018.9
16 16.09 СВ 4 н/о н/о +11.4 +7.7 78 +9 +9 1021.4 1018.1
18 16.09 С 7 н/о н/о +12.3 +7.2 71 +10 +10 1019.6 1016.4
19 16.09 С 7 н/о 5/0
[]
+12.3 +7.4 72 +9 +9 1019.1 1015.9
21 16.09 С 6 н/о н/о +12.1 +7.2 72 +9 +9 1018.6 1015.4
22 16.09 С 7 н/о 8/0
[]
+11.8 +7.1 73 +9 +9 1019.0 1015.8
00 17.09 С 8 н/о н/о +15.5 +7.5 59 +14 +14 1018.5 1015.3
01 17.09 С 6 н/о н/о +18.4 +8.1 51 +18 +18 1018.5 1015.3 +11.3
03 17.09 С 6 н/о н/о +24.2 +8.2 36 +25 +25 комфорт 1016.3 1013.2
04 17.09 С 6 н/о н/о +27.0 +8.9 32 +27 +27 жарко 1015.0 1011.8
06 17.09 С 4 н/о н/о +30.5 +9.9 28 +30 +30 жарко 1012.9 1009.7
07 17.09 ЮВ 4 н/о н/о +25.2 +10.6 40 +26 +26 жарко 1012.5 1009.3
09 17.09 ЮВ 5 н/о н/о +23.0 +12.6 52 +26 +26 жарко 1012.2 1009.0
10 17.09 ЮВ 2 н/о 5/0
[]
+20.8 +12.2 58 +24 +24 комфорт 1012.3 1009.1
12 17.09 С 5 н/о н/о +20.7 +11.9 57 +23 +23 комфорт 1012.7 1009.5
13 17.09 ЮЗ 4 н/о 10/0
[]
+20.8 +11.2 54 +23 +23 комфорт 1013.2 1010.0 +30.7
15 17.09 З 3 н/о н/о +17.3 +13.6 79 +17 +17 1013.7 1010.5
16 17.09 З 3 н/о н/о +16.6 +13.7 83 +16 +16 1014.4 1011.2
18 17.09 З 3 н/о н/о +16.0 +14.7 92 +16 +16 1013.8 1010.6
19 17.09 СЗ 3 н/о 1/0
[]
+14.7 +13.9 95 +14 +14 1013.5 1010.3
21 17.09 З 2 н/о н/о +13.9 +13.3 96 +13 +13 1013.8 1010.6
22 17.09 СЗ 3 н/о 6/6 300 м
[]
+14.1 +13.3 95 +13 +13 1013.6 1010.4
00 18.09 СЗ 4 н/о н/о +17.0 +13.7 81 +17 +17 1013.6 1010.4
01 18.09 З 5 н/о 4/4 1000 м
[]
+19.0 +12.5 66 +20 +23 1013.3 1010.1 +13.8
03 18.09 ЮЗ 5 н/о н/о +19.2 +12.0 63 +20 +20 1011.8 1008.6
04 18.09 З 4 н/о н/о +19.7 +12.0 61 +21 +21 комфорт 1010.8 1007.6
06 18.09 ЮЗ 4 н/о н/о +19.7 +10.9 57 +21 +21 комфорт 1008.1 1004.9
07 18.09 Ю 5 н/о н/о +19.4 +12.7 65 +21 +21 комфорт 1007.0 1003.8
09 18.09 В 3 н/о н/о +18.3 +12.7 70 +19 +19 1006.3 1003.1
10 18.09 ЮВ 2 н/о н/о +17.1 +12.6 75 +17 +17 1006.4 1003.2
12 18.09 С 3 н/о н/о +15.7 +13.7 88 +15 +15 1006.6 1003.4
13 18.09 СЗ 6 н/о н/о +18.0 +8.8 55 +17 +17 1006.0 1002.8 +25.0
15 18.09 СЗ 8 н/о н/о +19.0 +8.1 49 +19 +19 1004.7 1001.5
16 18.09 З 10 н/о н/о +18.3 +8.8 54 +17 +17 1005.0 1001.8
18 18.09 З 7 н/о н/о +13.3 +9.4 77 +11 +11 1006.3 1003.1
19 18.09 З 8 н/о в посл. час дождь {туман} н/о +13.8 +7.6 66 +11 +11 1006.7 1003.5
21 18.09 З 6 н/о н/о +12.4 +6.7 68 +10 +10 1008.0 1004.8
22 18.09 З 6 н/о туман местами н/о +9.4 +6.5 82 +6 +6 1008.9 1005.7
00 19.09 З 7 н/о н/о +9.8 +5.8 76 +6 +6 1010.5 1007.3
01 19.09 З 9 4500 м туман местами н/о +9.0 +6.6 85 +4 +4 1011.6 1008.4 +8.5
03 19.09 З 9 н/о н/о +8.5 +6.0 84 +4 +4 1013.5 1010.3
04 19.09 ЮЗ 8 н/о в посл. час дождь {туман} н/о +11.7 +4.2 60 +9 +9 1013.5 1010.3
06 19.09 ЮЗ 10 н/о н/о +10.2 +1.1 53 +6 +6 1015.2 1012.0
07 19.09 ЮЗ 7 н/о {туман} н/о +11.9 -0.9 41 +9 +9 1015.7 1012.5
09 19.09 ЮЗ 6 н/о н/о +11.1 -1.0 43 +9 +9 1017.9 1014.7
10 19.09 ЮЗ 7 н/о {туман} н/о +10.8 +0.2 48 +8 +8 1018.6 1015.4
12 19.09 Ю 6 н/о н/о +10.2 +2.6 59 +7 +7 1021.0 1017.7
13 19.09 Ю 8 н/о {туман} н/о +10.2 +1.8 56 +7 +7 1021.1 1017.8 +19.2
15 19.09 ЮЗ 6 н/о н/о +9.7 +1.6 57 +7 +7 1021.5 1018.2
16 19.09 Ю 6 н/о {туман} н/о +9.8 +2.6 61 +7 +7 1021.5 1018.2
18 19.09 Ю 7 н/о н/о +10.2 +3.0 61 +7 +7 1021.6 1018.3
19 19.09 ЮЗ 5 н/о {туман} н/о +9.8 +0.9 54 +7 +7 1021.9 1018.6
21 19.09 З 2 н/о н/о +8.7 +3.7 71 +7 +7 1023.1 1019.8
22 19.09 ЮЗ 3 н/о {туман} н/о +9.7 +3.0 63 +8 +8 1023.8 1020.5
00 20.09 ЮЗ 4 н/о н/о +11.3 +4.5 63 +9 +9 1024.9 1021.6
01 20.09 Ю 4 н/о {туман} 10/10 600 м
[]
+10.8 +5.8 71 +8 +8 1025.3 1022.0 +8.0
03 20.09 Ю 5 н/о н/о +12.1 +4.3 59 +10 +10 1025.2 1021.9
04 20.09 Ю 7 н/о {туман} 6/6 1000 м
[]
+13.0 +3.9 54 +11 +13 1025.1 1021.8
06 20.09 ЮЗ 6 н/о н/о +13.7 +2.9 48 +12 +12 1024.6 1021.3
07 20.09 Ю 7 н/о {туман} 6/6 1000 м
[]
+12.7 +2.6 50 +10 +11 1025.0 1021.7
09 20.09 З 3 н/о н/о +12.1 +5.9 66 +11 +11 1026.1 1022.8
10 20.09 ЮЗ 5 н/о в посл. час дождь {туман} 10/10 1000 м
[]
+10.1 +5.9 75 +7 +7 1026.8 1023.5
12 20.09 ЮЗ 3 н/о н/о +10.2 +5.8 74 +8 +8 1027.4 1024.1
13 20.09 ЮЗ 4 н/о в посл. час дождь {туман} 10/10 1000 м
[]
+9.9 +6.8 81 +7 +7 1027.4 1024.1 +14.5
15 20.09 Ю 4 н/о н/о +10.5 +4.9 68 +8 +8 1027.1 1023.8
18 20.09 Ю 4 н/о н/о +10.9 +4.1 63 +9 +9 1026.4 1023.1
19 20.09 З 3 н/о в посл. час дождь {туман} 10/10 1000 м
[]
+10.2 +6.0 75 +8 +8 1026.5 1023.2
21 20.09 СЗ 4 н/о н/о +7.4 +4.7 83 +4 +4 1027.0 1023.7
22 20.09 СЗ 3 н/о 1/1 1500 м
[]
+6.8 +4.8 87 +4 +4 1027.7 1024.4
00 21.09 СЗ 2 н/о н/о +12.0 +7.1 72 +11 +11 1028.4 1025.1

 

Местоположение метеостанции Эсперанс (Западная Австралия, Австралия): широта -33.83 долгота 121.88 высота над уровнем моря 27 м.

В архиве по умолчанию представлена погода в Эсперансе за последнюю неделю. Архивные данные за месяц целиком и за предыдущие месяцы, начиная с января 2011 года, Вы можете получить, выбрав интересующий диапазон дат из раскрывающегося списка и нажав кнопку "Ввод!".


*Определитесь, кто Вы:
робот инопланетянин человек

Внимание! Время в таблицах - всемирное. Для получения местного времени необходимо прибавить поправку, которая равна 8 ч.

Смотрите также архив погоды в соседних городах и на ближайших метеорологических станциях:

Погода в Эсперансе (Западная Австралия, Австралия) (17 км)
Погода в Салмон Гамс (Западная Австралия, Австралия) (98 км)
Погода в Мунглинап Запад (Западная Австралия, Австралия) (114 км)
Погода в Хоптауне (Западная Австралия, Австралия) (162 км)
Погода в Норсмане (Западная Австралия, Австралия) (179 км)
Погода в Джакапе (Западная Австралия, Австралия) (257 км)
Погода в Ньюдегейте (Западная Австралия, Австралия) (294 км)
Погода на Озере Грейс (Западная Австралия, Австралия) (328 км)
Погода в Калгурли-Боулдере (Западная Австралия, Австралия) (342 км)
Погода в Саутерн Кросс (Западная Австралия, Австралия) (374 км)

Пояснения к столбцам:

Ветер - указаны скорость ветра в м/с - средняя за 10 мин, порывы в срок и между сроками (в фигурных скобках) и направление, откуда дует ветер: С - северный, СВ - северо-восточный, В - восточный, ЮВ - юго-восточный, Ю - южный, ЮЗ - юго-западный, З - западный, СЗ - северо-западный.
Видимость - горизонтальная дальность видимости в метрах или километрах. При видимости от 1 до 10 км при отсутствии осадков обычно наблюдается дымка, при ухудшении видимости до 1 км и менее - туман. В сухую погоду видимость может ухудшаться дымом, пылью или мглою.
Явления - указаны атмосферные явления, наблюдавшиеся в срок или в последний час перед сроком; фигурными скобками обозначены явления, наблюдавшиеся между сроками (за 1-3 часа до срока); квадратными скобками обозначены град или гололедные отложения с указанием их диаметра в мм.
Облачность - указаны через наклонную черту общая и нижняя облачность в баллах и высота нижней границы облаков в метрах; квадратными скобками обозначены формы облаков: Ci - перистые, Cs - перисто-слоистые, Cc - перисто-кучевые, Ac - высококучевые, As - высокослоистые, Sc - слоисто-кучевые, Ns - слоисто-дождевые, Cu - кучевые, Cb - кучево-дождевые. Подробнее классификацию облаков см. в Атласе облаков (PDF).
T - Температура воздуха - температура, измеренная на высоте 2 м над землей.
Td - Температура точки росы - температура, при понижении до которой содержащийся в воздухе водяной пар достигнет насыщения.
f - Относительная влажность воздуха - влажноcть воздуха, измеренная на высоте 2 м над землей.
Te - Эффективная температура - температура, которую ощущает одетый по сезону человек в тени. Характеристика душности погоды. При расчете учитывается влияние влажности воздуха и скорости ветра на теплоощущения человека.
Tes - Эффективная температура на солнце - температура, которую ощущает человек, с поправкой на солнечный нагрев. Характеристика знойности погоды. Зависит от высоты солнца над горизонтом, облачности и скорости ветра. Ночью, в пасмурную погоду, а также при ветре 12 м/с и более поправка равна нулю.
P - Атмосферное давление - приведенное к уровню моря атмосферное давление.
Po - Атмосферное давление - измеренное на уровне метеостанции атмосферное давление.
Tmin - Минимальная температура - минимум температуры воздуха на высоте 2 м над землей.
Tmax - Максимальная температура - максимум температуры воздуха на высоте 2 м над землей.
R - Количество осадков - Количество выпавших осадков за период времени, мм. При наведении курсора мыши на число - период времени, за который выпало указанное количество осадков.
R24 - Количество осадков - Количество выпавших осадков за 24 часа, мм.
S - Снежный покров - Высота снежного покрова, см. При наведении курсора мыши на число - состояние снежного покрова и степень покрытия местности в баллах.